This is the latest recevied weather packets stored in our database for station/object N2XP-3. If no packets are shown the sender has not sent any weather packets the latest 10 day(s).
| Time | Temp. | Humidity | Pressure | Rain* | Wind** | Luminosity | Snow |
|---|---|---|---|---|---|---|---|
| 1777846546 | 15° C | 36% | 1008 hPa | 0 mm | 0.45 m/s, 193° | - | - |
| 1777846523 | 15° C | 35% | 1008 hPa | 0 mm | 0.45 m/s, 14° | - | - |
| 1777846240 | 15° C | 35% | 1008 hPa | 0 mm | 0.45 m/s, 14° | - | - |
| 1777846097 | 15.56° C | 35% | 1007.9 hPa | 0 mm | 0 m/s | - | - |
| 1777845930 | 15.56° C | 35% | 1007.9 hPa | 0 mm | 0 m/s | - | - |
| 1777845620 | 15.56° C | 34% | 1007.9 hPa | 0 mm | 2.68 m/s, 359° | - | - |
| 1777845327 | 15.56° C | 34% | 1007.9 hPa | 0 mm | 2.68 m/s, 359° | - | - |
| 1777845320 | 15.56° C | 34% | 1008 hPa | 0 mm | 2.24 m/s, 120° | - | - |
| 1777845026 | 15.56° C | 34% | 1008 hPa | 0 mm | 2.24 m/s, 120° | - | - |
| 1777845004 | 15.56° C | 34% | 1007.8 hPa | 0 mm | 1.79 m/s, 141° | - | - |
| 1777844726 | 15.56° C | 34% | 1007.8 hPa | 0 mm | 1.79 m/s, 141° | - | - |
| 1777844422 | 16.11° C | 34% | 1007.9 hPa | 0 mm | 0 m/s | - | - |
| 1777844419 | 16.11° C | 34% | 1007.8 hPa | 0 mm | 1.34 m/s, 23° | - | - |
| 1777844122 | 16.11° C | 34% | 1007.8 hPa | 0 mm | 1.34 m/s, 23° | - | - |
| 1777844106 | 16.11° C | 35% | 1007.9 hPa | 0 mm | 1.79 m/s, 187° | - | - |
| 1777843823 | 16.11° C | 35% | 1007.9 hPa | 0 mm | 1.79 m/s, 187° | - | - |
| 1777843520 | 16.11° C | 34% | 1007.9 hPa | 0 mm | 0 m/s | - | - |
| 1777843216 | 15.56° C | 34% | 1007.9 hPa | 0 mm | 0 m/s | - | - |
| 1777842914 | 15.56° C | 34% | 1007.8 hPa | 0 mm | 1.79 m/s, 170° | - | - |
| 1777842009 | 16.11° C | 35% | 1007.9 hPa | 0 mm | 0 m/s | - | - |
| 1777841406 | 15.56° C | 35% | 1007.9 hPa | 0 mm | 1.79 m/s, 221° | - | - |
| 1777841106 | 15.56° C | 33% | 1007.9 hPa | 0 mm | 0.89 m/s, 304° | - | - |
| 1777840800 | 15.56° C | 34% | 1008 hPa | 0 mm | 3.13 m/s, 359° | - | - |
| 1777840501 | 15.56° C | 35% | 1008.1 hPa | 0 mm | 1.79 m/s, 243° | - | - |
| 1777840200 | 15.56° C | 33% | 1008.2 hPa | 0 mm | 3.13 m/s, 266° | - | - |
* Rain latest hour (hover to see other rain measurements)
** Current wind speed in m/s (hover to see current wind gust speed)